FLOCK 3P-63 (42035 NORAD) Tracking and Keplerian Element Data

This shows tracking and keplerian element data for the satellite.

Feedback or suggestion? Click here.




ElementValue
Catalog42035
NameFLOCK 3P-63
Epoch Orbit5343
Epoch Day45.79576891
Epoch Year2018
RAAN111.3876
Inclination97.4654
Eccentricity0.0009523
Argument of Perigee87.0638
Mean Anonmoly273.1688
Mean Motion15.23918905
Decay Rate1.483E-05
L11 42035U 17008CR 18045.79576891 .00001483 00000-0 64312-4 0 9996
L22 42035 97.4654 111.3876 0009523 87.0638 273.1688 15.23918905 53432

Live tracking and technical data element details for FLOCK 3P-63 (NORAD 42035). FLOCK 3P-63 can be tracked NOW for your location showing map with azimuth and elevation plus other details from your city location.

Track the satellite on the map from your city or location and see movement details for azimuth, elevation, latitude, longitude, range, height, and movement on the map or in text.







IsCatalogInMostPopularTable: catalog: 42035, numindb: 91
Update: records affected: 1



GetName: 42035 FLOCK 3P-63

Hit Count: updated at: Sat, 21 Jul 2018 08:06:06 GMT